Location: Bottenau
(48.5138°N, 8.0462°E)
Time: 17:12:05
(UTC+00:00)

Thor Agena Rocket - Pass Details

Date: 18 April 2021
Orbit: 759 x 808 km, 99.0° (Epoch: 06 May)

Event Time Altitude Azimuth Distance (km) Brightness Sun altitude
Rises 22:52:40 0° 19° (NNE) 3,246 7.6 -29.8°
Reaches altitude 10° 22:55:02 10° 25° (NNE) 2,320 6.6 -29.9°
Enters shadow 22:58:37 39° 56° (NE) 1,148 4.5 -30.0°
